Weather History for Bozeman, MT

Change the Weather History Date:

Wednesday, February 13, 2013

  Actual Average Record
Temperature  
Mean Temperature 37 °F 26 °F  
Max Temperature 42 °F 39 °F 58 °F (1996)
Min Temperature 31 °F 14 °F -38 °F (1949)
Degree Days  
Heating Degree Days 28    
Month to date heating degree days 508  
Since 1 July heating degree days 5143  
Cooling Degree Days 0    
Month to date cooling degree days 0  
Year to date cooling degree days 0  
Moisture  
Dew Point 22 °F    
Average Humidity 62    
Maximum Humidity 78    
Minimum Humidity 45    
Precipitation  
Precipitation 0.00 in 0.02 in 0.25 in (1975)
Month to date precipitation T 0.18  
Year to date precipitation 0.24 0.66  
Snow  
Snow 0.00 in 0.20 in 2.60 in (1952)
Month to date snowfall T 2.1  
Since 1 July snowfall 16.9 19.5  
Snow Depth 5.00 in    
Sea Level Pressure  
Sea Level Pressure 30.07 in    
Wind  
Wind Speed 8 mph (West)    
Max Wind Speed 25 mph    
Max Gust Speed 31 mph    
Visibility 10 miles    
Events      
T = Trace of Precipitation, MM = Missing Value Source: NWS Daily Summary

Daily Weather History Graph

Daily Weather History Graph

Search for Another Location

Airport:

Trip Planner

Search our weather history database for the weather conditions in past years. The results will help you decide how hot, cold, wet, or windy it might be!

Date:

Astronomy

Feb. 13, 2013 Rise Set
Actual Time 7:29 AM MST 5:48 PM MST
Civil Twilight 6:58 AM MST 6:19 PM MST
Nautical Twilight 6:23 AM MST 6:54 PM MST
Astronomical Twilight 5:49 AM MST 7:29 PM MST
Moon 8:46 AM MST (2/13) 10:11 PM MST (2/13)
Length of Visible Light 11h 20m
Length of Day
10h 19m
Waxing Crescent, 14% of the Moon is Illuminated
Feb 13
Waxing Crescent
Feb 17
First Quarter
Feb 25
Full
Mar 4
Last Quarter
Mar 11
New

Hourly Weather History & Observations

Time (MST) Temp. Windchill Dew Point Humidity Pressure Visibility Wind Dir Wind Speed Gust Speed Precip Events Conditions
12:56 AM 30.9 °F - 25.0 °F 79% 30.13 in 10.0 mi Calm Calm - N/A   Overcast
1:56 AM 35.1 °F - 21.9 °F 59% 30.09 in 10.0 mi Calm Calm - N/A   Overcast
2:56 AM 37.0 °F 30.4 °F 23.0 °F 57% 30.08 in 10.0 mi WSW 9.2 mph - N/A   Overcast
3:56 AM 36.0 °F 31.1 °F 23.0 °F 59% 30.07 in 10.0 mi NNE 5.8 mph - N/A   Overcast
4:56 AM 37.9 °F 32.1 °F 23.0 °F 55% 30.06 in 10.0 mi WSW 8.1 mph - N/A   Overcast
5:56 AM 39.0 °F 32.3 °F 23.0 °F 53% 30.02 in 10.0 mi SW 10.4 mph - N/A   Overcast
6:56 AM 37.0 °F 32.4 °F 24.1 °F 59% 30.03 in 10.0 mi SSE 5.8 mph - N/A   Overcast
7:56 AM 39.0 °F - 23.0 °F 53% 30.01 in 10.0 mi Calm Calm - N/A   Overcast
8:56 AM 39.9 °F 32.1 °F 23.0 °F 51% 29.99 in 10.0 mi WSW 13.8 mph - N/A   Overcast
9:56 AM 41.0 °F 33.1 °F 23.0 °F 49% 30.03 in 10.0 mi West 15.0 mph 20.7 mph N/A   Overcast
10:56 AM 41.0 °F 34.3 °F 24.1 °F 51% 30.02 in 10.0 mi West 11.5 mph - N/A   Overcast
11:56 AM 41.0 °F 32.5 °F 21.9 °F 47% 30.04 in 10.0 mi West 17.3 mph - N/A   Overcast
12:56 PM 39.0 °F 32.3 °F 24.1 °F 55% 30.06 in 10.0 mi WNW 10.4 mph - N/A   Mostly Cloudy
1:56 PM 39.9 °F 32.1 °F 24.1 °F 53% 30.03 in 10.0 mi WNW 13.8 mph - N/A   Mostly Cloudy
2:56 PM 39.0 °F 29.3 °F 21.9 °F 50% 30.02 in 10.0 mi NW 19.6 mph - N/A   Partly Cloudy
3:56 PM 37.9 °F 28.5 °F 21.9 °F 53% 30.03 in 10.0 mi NW 17.3 mph - N/A   Clear
4:56 PM 37.0 °F 28.9 °F 23.0 °F 57% 30.04 in 10.0 mi NW 12.7 mph - N/A   Partly Cloudy
5:56 PM 36.0 °F - 21.9 °F 57% 30.07 in 10.0 mi Calm Calm - N/A   Clear
6:56 PM 36.0 °F - 21.0 °F 55% 30.09 in 10.0 mi Calm Calm - N/A   Mostly Cloudy
7:56 PM 37.0 °F - 19.9 °F 50% 30.11 in 10.0 mi Calm Calm - N/A   Overcast
8:56 PM 36.0 °F - 21.0 °F 55% 30.12 in 10.0 mi Calm Calm - N/A   Overcast
9:56 PM 36.0 °F 31.1 °F 19.0 °F 50% 30.13 in 10.0 mi NW 5.8 mph - N/A   Overcast
10:56 PM 35.1 °F 31.0 °F 21.0 °F 57% 30.15 in 10.0 mi WSW 4.6 mph - N/A   Overcast
11:56 PM 35.1 °F 29.3 °F 21.0 °F 57% 30.17 in 10.0 mi West 6.9 mph - N/A   Overcast